| time (UTC) | temp C | wind direction | speed KPH | gust KPH | rain 1hr cm | rain 24hr cm | rain mn cm | humidity % | barometer mb |
| 20260503193345 | -17 | 280 | 1.6 | 6.4 | 0.00 | 0.00 | 0.00 | 1014.1 | |
| 20260503192345 | -17 | 272 | 1.6 | 6.4 | 0.00 | 0.00 | 0.00 | 1014.1 | |
| 20260503191410 | -17 | 282 | 1.6 | 6.4 | 0.00 | 0.00 | 0.00 | 1014.2 | |
| 20260503190345 | -17 | 296 | 1.6 | 4.8 | 0.00 | 0.00 | 0.00 | 1014.3 | |
| 20260503185344 | -17 | 282 | 1.6 | 4.8 | 0.00 | 0.00 | 0.00 | 1014.3 | |
| 20260503184346 | -17 | 260 | 1.6 | 4.8 | 0.00 | 0.00 | 0.00 | 1014.3 | |
| 20260503183344 | -17 | 260 | 1.6 | 6.4 | 0.00 | 0.00 | 0.00 | 1014.4 | |
| 20260503181409 | -17 | 200 | 1.6 | 9.7 | 0.00 | 0.00 | 0.00 | 1014.4 | |
| 20260503180345 | -17 | 250 | 1.6 | 4.8 | 0.00 | 0.00 | 0.00 | 1014.6 | |
| 20260503175344 | -17 | 55 | 0.0 | 4.8 | 0.00 | 0.00 | 0.00 | 1014.6 | |
| 20260503174344 | -17 | 186 | 1.6 | 6.4 | 0.00 | 0.00 | 0.00 | 1014.7 | |
| 20260503172344 | -17 | 62 | 1.6 | 4.8 | 0.00 | 0.00 | 0.00 | 1014.8 | |
| 20260503171409 | -17 | 141 | 1.6 | 8.0 | 0.00 | 0.00 | 0.00 | 1014.7 | |
| 20260503170344 | -17 | 156 | 1.6 | 11.3 | 0.00 | 0.00 | 0.00 | 1014.8 | |
| 20260503150342 | -17 | 122 | 1.6 | 8.0 | 0.00 | 0.00 | 0.00 | 1015.1 | |
| 20260503131406 | -17 | 61 | 3.2 | 9.7 | 0.00 | 0.00 | 0.00 | 1015.0 | |
| 20260503130341 | -17 | 45 | 4.8 | 16.1 | 0.00 | 0.00 | 0.00 | 1015.0 | |
| 20260503110241 | -17 | 82 | 1.6 | 9.7 | 0.00 | 0.00 | 0.00 | 1015.3 | |
| 20260503100241 | -17 | 36 | 3.2 | 9.7 | 0.00 | 0.00 | 0.00 | 1015.6 | |
| 20260503090241 | -17 | 49 | 3.2 | 8.0 | 0.00 | 0.00 | 0.00 | 1015.6 | |
| 20260503081305 | -17 | 64 | 0.0 | 3.2 | 0.00 | 0.00 | 0.00 | 1015.7 | |
| 20260503072240 | -17 | 13 | 1.6 | 8.0 | 0.00 | 0.00 | 0.00 | 1015.7 | |
| 20260503071305 | -17 | 90 | 1.6 | 4.8 | 0.00 | 0.00 | 0.00 | 1015.7 | |
| 20260503070239 | -17 | 49 | 3.2 | 9.7 | 0.00 | 0.00 | 0.00 | 1015.8 | |
| 20260503060239 | -17 | 112 | 1.6 | 1.6 | 0.00 | 0.00 | 0.00 | 1015.8 | |
| 20260503054239 | -17 | 109 | 0.0 | 3.2 | 0.00 | 0.00 | 0.00 | 1015.7 | |
| 20260503053239 | -17 | 356 | 3.2 | 8.0 | 0.00 | 0.00 | 0.00 | 1015.6 | |
| 20260503052239 | -17 | 3 | 6.4 | 11.3 | 0.00 | 0.00 | 0.00 | 1015.6 | |
| 20260503051312 | -17 | 359 | 3.2 | 6.4 | 0.00 | 0.00 | 0.00 | 1015.4 | |
| 20260503045241 | -17 | 353 | 9.7 | 16.1 | 0.00 | 0.00 | 0.00 | 1015.3 | |
| 20260503044239 | -17 | 356 | 9.7 | 14.5 | 0.00 | 0.00 | 0.00 | 1015.1 | |
| 20260503043241 | -17 | 352 | 6.4 | 12.9 | 0.00 | 0.00 | 0.00 | 1015.1 | |
| 20260503042331 | -17 | 289 | 8.0 | 12.9 | 0.00 | 0.00 | 0.00 | 1015.1 | |
| 20260503041358 | -17 | 282 | 6.4 | 14.5 | 0.00 | 0.00 | 0.00 | 1014.9 | |
| 20260503035339 | -17 | 301 | 8.0 | 14.5 | 0.00 | 0.00 | 0.00 | 1014.6 | |
| 20260503033341 | -17 | 308 | 8.0 | 17.7 | 0.00 | 0.00 | 0.00 | 1014.2 | |
| 20260503032341 | -17 | 284 | 6.4 | 14.5 | 0.00 | 0.00 | 0.00 | 1014.1 | |
| 20260503031407 | -17 | 273 | 8.0 | 14.5 | 0.00 | 0.00 | 0.00 | 1014.1 | |
| 20260503030343 | -17 | 257 | 6.4 | 12.9 | 0.00 | 0.00 | 0.00 | 1013.9 | |
| 20260503024341 | -17 | 281 | 4.8 | 11.3 | 0.00 | 0.00 | 0.00 | 1013.8 | |
| 20260503023344 | -17 | 290 | 3.2 | 14.5 | 0.00 | 0.00 | 0.00 | 1013.8 | |
| 20260503022406 | -17 | 291 | 6.4 | 14.5 | 0.00 | 0.00 | 0.00 | 1013.7 | |
| 20260503020341 | -17 | 279 | 8.0 | 17.7 | 0.00 | 0.00 | 0.00 | 1013.7 | |
| 20260503015341 | -17 | 298 | 11.3 | 19.3 | 0.00 | 0.00 | 0.00 | 1013.7 | |
| 20260503014343 | -17 | 301 | 9.7 | 16.1 | 0.00 | 0.00 | 0.00 | 1013.8 | |
| 20260503013345 | -17 | 294 | 11.3 | 17.7 | 0.00 | 0.00 | 0.00 | 1013.7 | |
| 20260503012343 | -17 | 302 | 9.7 | 16.1 | 0.00 | 0.00 | 0.00 | 1013.7 | |
| 20260503011410 | -17 | 300 | 9.7 | 16.1 | 0.00 | 0.00 | 0.00 | 1013.7 | |
| 20260503010342 | -17 | 303 | 9.7 | 16.1 | 0.00 | 0.00 | 0.00 | 1013.7 | |
| 20260503005345 | -17 | 291 | 9.7 | 17.7 | 0.00 | 0.00 | 0.00 | 1013.7 | |
| 20260503004342 | -17 | 295 | 9.7 | 14.5 | 0.00 | 0.00 | 0.00 | 1013.7 | |
| 20260503003345 | -17 | 290 | 9.7 | 14.5 | 0.00 | 0.00 | 0.00 | 1013.7 | |
| 20260503002342 | -17 | 292 | 9.7 | 17.7 | 0.00 | 0.00 | 0.00 | 1013.7 | |
| 20260503000342 | -17 | 279 | 11.3 | 20.9 | 0.00 | 0.00 | 0.00 | 1013.8 | |
| 20260502233343 | -17 | 269 | 12.9 | 20.9 | 0.00 | 0.00 | 0.00 | 1013.7 | |
| 20260502231408 | -17 | 262 | 11.3 | 24.1 | 0.00 | 0.00 | 0.00 | 1013.9 | |
| 20260502225343 | -17 | 258 | 11.3 | 17.7 | 0.00 | 0.00 | 0.00 | 1014.0 | |
| 20260502224343 | -17 | 259 | 11.3 | 17.7 | 0.00 | 0.00 | 0.00 | 1014.1 | |
| 20260502223342 | -17 | 245 | 12.9 | 19.3 | 0.00 | 0.00 | 0.00 | 1014.2 | |
| 20260502222342 | -17 | 250 | 11.3 | 19.3 | 0.00 | 0.00 | 0.00 | 1014.4 | |
| 20260502221406 | -17 | 239 | 11.3 | 14.5 | 0.00 | 0.00 | 0.00 | 1014.4 | |
| 20260502220342 | -17 | 232 | 9.7 | 14.5 | 0.00 | 0.00 | 0.00 | 1014.5 | |
| 20260502215342 | -17 | 238 | 9.7 | 14.5 | 0.00 | 0.00 | 0.00 | 1014.6 | |
| 20260502213340 | -17 | 261 | 4.8 | 9.7 | 0.00 | 0.00 | 0.00 | 1014.7 | |
| 20260502212341 | -17 | 251 | 6.4 | 11.3 | 0.00 | 0.00 | 0.00 | 1014.8 | |
| 20260502211405 | -17 | 302 | 6.4 | 9.7 | 0.00 | 0.00 | 0.00 | 1014.9 | |
| 20260502210520 | -17 | 288 | 6.4 | 11.3 | 0.00 | 0.00 | 0.00 | 1015.0 | |
| 20260502205340 | -17 | 291 | 6.4 | 12.9 | 0.00 | 0.00 | 0.00 | 1015.1 | |
| 20260502204342 | -17 | 294 | 4.8 | 11.3 | 0.00 | 0.00 | 0.00 | 1015.2 | |
| 20260502203341 | -17 | 305 | 4.8 | 9.7 | 0.00 | 0.00 | 0.00 | 1015.3 | |
| 20260502202342 | -17 | 338 | 4.8 | 11.3 | 0.00 | 0.00 | 0.00 | 1015.4 | |
| 20260502201408 | -17 | 339 | 4.8 | 9.7 | 0.00 | 0.00 | 0.00 | 1015.4 | |
| 20260502200341 | -17 | 337 | 3.2 | 8.0 | 0.00 | 0.00 | 0.00 | 1015.4 | |
| 20260502195341 | -17 | 285 | 3.2 | 8.0 | 0.00 | 0.00 | 0.00 | 1015.5 | |
| 20260502194342 | -17 | 312 | 4.8 | 9.7 | 0.00 | 0.00 | 0.00 | 1015.6 |